| time (UTC) | temp F | wind direction | speed MPH | gust MPH | rain 1hr in | rain 24hr in | rain mn in | humidity % | barometer mb |
| 20260506211851 | 57 | 180 | 7.0 | 0.0 | 0.00 | 0.00 | 0.00 | 87 | |
| 20260506203102 | 57 | 130 | 7.0 | 0.0 | 0.00 | 0.00 | 0.00 | 87 | 1005.0 |
| 20260506201924 | 57 | 240 | 2.0 | 0.0 | 0.00 | 0.00 | 0.00 | 82 | |
| 20260506200303 | 57 | 0 | 2.0 | 0.0 | 0.00 | 0.00 | 0.00 | 87 | 1005.0 |
| 20260506194402 | 57 | 50 | 5.0 | 0.0 | 0.00 | 0.00 | 0.00 | 87 | 1005.0 |
| 20260506193103 | 59 | 0 | 2.0 | 0.0 | 0.00 | 0.00 | 0.00 | 87 | 1005.0 |
| 20260506192306 | 59 | 320 | 3.0 | 0.0 | 0.00 | 0.00 | 0.00 | 82 | 1005.0 |
| 20260506192032 | 59 | 80 | 5.0 | 0.0 | 0.00 | 0.00 | 0.00 | 82 | |
| 20260506190217 | 59 | 50 | 3.0 | 0.0 | 0.00 | 0.00 | 0.00 | 82 | 1005.0 |
| 20260506183103 | 59 | 70 | 7.0 | 0.0 | 0.00 | 0.00 | 0.00 | 82 | 1004.0 |
| 20260506181940 | 59 | 70 | 7.0 | 0.0 | 0.00 | 0.00 | 0.00 | 82 | |
| 20260506180104 | 61 | 50 | 5.0 | 0.0 | 0.00 | 0.00 | 0.00 | 77 | 1004.0 |
| 20260506173102 | 61 | 70 | 5.0 | 0.0 | 0.00 | 0.00 | 0.00 | 77 | 1004.0 |
| 20260506171851 | 61 | 70 | 5.0 | 0.0 | 0.00 | 0.00 | 0.00 | 72 | |
| 20260506170103 | 63 | 60 | 5.0 | 0.0 | 0.00 | 0.00 | 0.00 | 67 | 1004.0 |
| 20260506163103 | 61 | 90 | 7.0 | 0.0 | 0.00 | 0.00 | 0.00 | 82 | 1004.0 |
| 20260506162108 | 61 | 190 | 5.0 | 0.0 | 0.00 | 0.00 | 0.00 | 72 | |
| 20260506160212 | 61 | 260 | 6.0 | 0.0 | 0.00 | 0.00 | 0.00 | 72 | 1005.0 |
| 20260506153511 | 64 | 290 | 8.0 | 0.0 | 0.00 | 0.00 | 0.00 | 63 | 1004.0 |
| 20260506153102 | 66 | 310 | 7.0 | 0.0 | 0.00 | 0.00 | 0.00 | 59 | 1004.0 |
| 20260506151923 | 66 | 310 | 7.0 | 0.0 | 0.00 | 0.00 | 0.00 | 55 | |
| 20260506143102 | 68 | 340 | 6.0 | 0.0 | 0.00 | 0.00 | 0.00 | 52 | 1005.0 |
| 20260506141909 | 70 | 10 | 5.0 | 0.0 | 0.00 | 0.00 | 0.00 | 46 | |
| 20260506140210 | 70 | 0 | 2.0 | 0.0 | 0.00 | 0.00 | 0.00 | 46 | 1005.0 |
| 20260506133102 | 70 | 240 | 6.0 | 0.0 | 0.00 | 0.00 | 0.00 | 46 | 1005.0 |
| 20260506131908 | 70 | 210 | 5.0 | 0.0 | 0.00 | 0.00 | 0.00 | 46 | |
| 20260506130103 | 70 | 220 | 6.0 | 0.0 | 0.00 | 0.00 | 0.00 | 49 | 1005.0 |
| 20260506123103 | 68 | 220 | 3.0 | 0.0 | 0.00 | 0.00 | 0.00 | 49 | 1006.0 |
| 20260506121908 | 68 | 220 | 9.0 | 0.0 | 0.00 | 0.00 | 0.00 | 49 | |
| 20260506120103 | 68 | 250 | 8.0 | 0.0 | 0.00 | 0.00 | 0.00 | 52 | 1006.0 |
| 20260506113103 | 68 | 230 | 10.0 | 0.0 | 0.00 | 0.00 | 0.00 | 52 | 1006.0 |
| 20260506111854 | 66 | 230 | 9.0 | 0.0 | 0.00 | 0.00 | 0.00 | 52 | |
| 20260506110103 | 66 | 230 | 10.0 | 0.0 | 0.00 | 0.00 | 0.00 | 55 | 1006.0 |
| 20260506103103 | 66 | 220 | 12.0 | 0.0 | 0.00 | 0.00 | 0.00 | 59 | 1007.0 |
| 20260506102055 | 64 | 210 | 12.0 | 0.0 | 0.00 | 0.00 | 0.00 | 59 | |
| 20260506093103 | 64 | 220 | 10.0 | 0.0 | 0.00 | 0.00 | 0.00 | 59 | 1007.0 |
| 20260506091853 | 63 | 210 | 12.0 | 0.0 | 0.00 | 0.00 | 0.00 | 63 | |
| 20260506083103 | 63 | 210 | 13.0 | 0.0 | 0.00 | 0.00 | 0.00 | 67 | 1007.0 |
| 20260506081851 | 61 | 220 | 12.0 | 0.0 | 0.00 | 0.00 | 0.00 | 67 | |
| 20260506080210 | 61 | 220 | 12.0 | 0.0 | 0.00 | 0.00 | 0.00 | 72 | 1006.0 |
| 20260506073103 | 61 | 220 | 12.0 | 0.0 | 0.00 | 0.00 | 0.00 | 72 | 1006.0 |
| 20260506071853 | 59 | 220 | 12.0 | 0.0 | 0.00 | 0.00 | 0.00 | 77 | |
| 20260506070103 | 59 | 210 | 10.0 | 0.0 | 0.00 | 0.00 | 0.00 | 77 | 1006.0 |
| 20260506061855 | 57 | 200 | 12.0 | 0.0 | 0.00 | 0.00 | 0.00 | 82 | |
| 20260506050210 | 55 | 220 | 9.0 | 0.0 | 0.00 | 0.00 | 0.00 | 87 | 1006.0 |
| 20260506043103 | 54 | 220 | 10.0 | 0.0 | 0.00 | 0.00 | 0.00 | 93 | 1006.0 |
| 20260506042051 | 54 | 210 | 12.0 | 0.0 | 0.00 | 0.00 | 0.00 | 87 | |
| 20260506033102 | 54 | 220 | 8.0 | 0.0 | 0.00 | 0.00 | 0.00 | 93 | 1006.0 |
| 20260506031854 | 54 | 220 | 9.0 | 0.0 | 0.00 | 0.00 | 0.00 | 93 | |
| 20260506030103 | 54 | 210 | 9.0 | 0.0 | 0.00 | 0.00 | 0.00 | 93 | 1006.0 |
| 20260506023103 | 54 | 220 | 8.0 | 0.0 | 0.00 | 0.00 | 0.00 | 93 | 1006.0 |
| 20260506021854 | 54 | 200 | 5.0 | 0.0 | 0.00 | 0.00 | 0.00 | 99 | |
| 20260506020213 | 55 | 200 | 5.0 | 0.0 | 0.00 | 0.00 | 0.00 | 93 | 1006.0 |
| 20260506015004 | 55 | 180 | 5.0 | 0.0 | 0.00 | 0.00 | 0.00 | 93 | 1006.0 |
| 20260506013102 | 54 | 170 | 3.0 | 0.0 | 0.00 | 0.00 | 0.00 | 100 | 1006.0 |
| 20260506012702 | 54 | 170 | 3.0 | 0.0 | 0.00 | 0.00 | 0.00 | 100 | 1006.0 |
| 20260506011953 | 55 | 150 | 2.0 | 0.0 | 0.00 | 0.00 | 0.00 | 93 | |
| 20260506011902 | 54 | 160 | 5.0 | 0.0 | 0.00 | 0.00 | 0.00 | 93 | 1006.0 |
| 20260506003209 | 55 | 0 | 2.0 | 0.0 | 0.00 | 0.00 | 0.00 | 93 | 1006.0 |
| 20260506001851 | 55 | 280 | 5.0 | 0.0 | 0.00 | 0.00 | 0.00 | 93 | |
| 20260505233103 | 55 | 0 | 1.0 | 0.0 | 0.00 | 0.00 | 0.00 | 93 | 1006.0 |
| 20260505231852 | 55 | 290 | 2.0 | 0.0 | 0.00 | 0.00 | 0.00 | 93 | |
| 20260505230212 | 55 | 290 | 5.0 | 0.0 | 0.00 | 0.00 | 0.00 | 93 | 1006.0 |
| 20260505224003 | 55 | 290 | 7.0 | 0.0 | 0.00 | 0.00 | 0.00 | 93 | 1006.0 |
| 20260505223103 | 57 | 290 | 8.0 | 0.0 | 0.00 | 0.00 | 0.00 | 93 | 1006.0 |
| 20260505221851 | 57 | 270 | 14.0 | 0.0 | 0.00 | 0.00 | 0.00 | 87 | |
| 20260505220703 | 57 | 270 | 13.0 | 0.0 | 0.00 | 0.00 | 0.00 | 93 | 1006.0 |
| 20260505213102 | 59 | 260 | 13.0 | 0.0 | 0.00 | 0.00 | 0.00 | 87 | 1006.0 |